Location: Arborea
(39.7744°N, 8.5819°E)
Time: 00:46:58
(UTC+00:00)

Cosmos 1000 Rocket - Pass Details

Date: 12 October 2023
Orbit: 952 x 993 km, 82.9° (Epoch: 03 December)

Event Time Altitude Azimuth Distance (km) Brightness Sun altitude
Rises 18:34:13 0° 167° (SSE) 3,689 7.3 -20.5°
Reaches altitude 10° 18:36:49 10° 162° (SSE) 2,746 6.6 -21.0°
Maximum altitude 18:42:48 47° 90° (E) 1,286 4.7 -22.2°
Drops below altitude 10° 18:48:49 10° 19° (NNE) 2,760 6.8 -23.3°
Sets 18:51:26 0° 14° (NNE) 3,709 7.5 -23.8°
